Hourly Weather Suhodol

Today, 22 January, Friday

Time Temperature Precipitation Wind Pressure Humidity
00:00 -13°C° 0.1 mm 1 mps 753 mmHg 96%
01:00 -13°C° 0 mm 1 mps 754 mmHg 96%
02:00 -14°C° 0 mm 1 mps 754 mmHg 96%
03:00 -15°C° 0 mm 1 mps 754 mmHg 97%
04:00 -15°C° 0 mm 1 mps 754 mmHg 97%
05:00 -16°C° 0 mm 1 mps 754 mmHg 97%
06:00 -16°C° 0 mm 1 mps 754 mmHg 97%
07:00 -17°C° 0 mm 1 mps 755 mmHg 97%
08:00 -17°C° 0 mm 0 mps 755 mmHg 97%
09:00 -17°C° 0 mm 0 mps 755 mmHg 97%
10:00 -16°C° 0 mm 0 mps 756 mmHg 95%
11:00 -15°C° 0 mm 0 mps 756 mmHg 93%
12:00 -14°C° 0 mm 0 mps 757 mmHg 92%
13:00 -14°C° 0 mm 1 mps 757 mmHg 92%
14:00 -14°C° 0 mm 1 mps 757 mmHg 93%
15:00 -14°C° 0 mm 1 mps 757 mmHg 94%
16:00 -15°C° 0 mm 1 mps 757 mmHg 95%
17:00 -17°C° 0 mm 2 mps 757 mmHg 95%
18:00 -18°C° 0 mm 2 mps 757 mmHg 95%
19:00 -19°C° 0 mm 3 mps 758 mmHg 94%
20:00 -19°C° 0 mm 3 mps 758 mmHg 94%
21:00 -19°C° 0 mm 3 mps 758 mmHg 94%
22:00 -19°C° 0 mm 3 mps 758 mmHg 94%
23:00 -19°C° 0 mm 4 mps 758 mmHg 93%

Tomorrow, 23 January, Saturday

Time Temperature Precipitation Wind Pressure Humidity
00:00 -19°C° 0 mm 4 mps 758 mmHg 93%
01:00 -19°C° 0.2 mm 4 mps 758 mmHg 94%
02:00 -18°C° 0.2 mm 4 mps 757 mmHg 94%
03:00 -18°C° 0.2 mm 4 mps 757 mmHg 94%
04:00 -17°C° 0.2 mm 4 mps 757 mmHg 94%
05:00 -17°C° 0.2 mm 4 mps 756 mmHg 94%
06:00 -17°C° 0.2 mm 4 mps 756 mmHg 94%
07:00 -16°C° 0.3 mm 4 mps 756 mmHg 94%
08:00 -15°C° 0.3 mm 4 mps 755 mmHg 94%
09:00 -14°C° 0.3 mm 4 mps 755 mmHg 94%
10:00 -12°C° 0.3 mm 4 mps 755 mmHg 94%
11:00 -11°C° 0.3 mm 4 mps 755 mmHg 94%
12:00 -10°C° 0.3 mm 4 mps 754 mmHg 95%
13:00 -7°C° 0.4 mm 3 mps 754 mmHg 96%
14:00 -5°C° 0.4 mm 3 mps 754 mmHg 96%
15:00 -2°C° 0.4 mm 3 mps 754 mmHg 97%
16:00 -2°C° 0.3 mm 3 mps 753 mmHg 98%
17:00 -1°C° 0.3 mm 3 mps 753 mmHg 98%
18:00 0°C° 0.3 mm 3 mps 753 mmHg 99%
19:00 0°C° 0.3 mm 3 mps 753 mmHg 99%
20:00 0°C° 0.3 mm 3 mps 753 mmHg 99%
21:00 0°C° 0.3 mm 3 mps 754 mmHg 99%
22:00 0°C° 0.1 mm 3 mps 754 mmHg 99%
23:00 0°C° 0.1 mm 3 mps 754 mmHg 99%

Day after tomorrow, 24 January, Sunday

Time Temperature Precipitation Wind Pressure Humidity
00:00 0°C° 0.1 mm 3 mps 754 mmHg 98%
01:00 0°C° 0.2 mm 3 mps 754 mmHg 98%
02:00 0°C° 0.2 mm 3 mps 754 mmHg 98%
03:00 0°C° 0.2 mm 3 mps 755 mmHg 98%
04:00 0°C° 0.1 mm 3 mps 755 mmHg 97%
05:00 0°C° 0.1 mm 3 mps 755 mmHg 96%
06:00 0°C° 0.1 mm 3 mps 755 mmHg 95%
07:00 0°C° 0 mm 3 mps 755 mmHg 96%
08:00 0°C° 0 mm 3 mps 756 mmHg 96%
09:00 0°C° 0 mm 3 mps 756 mmHg 97%
10:00 0°C° 0 mm 3 mps 756 mmHg 98%
11:00 0°C° 0 mm 3 mps 756 mmHg 99%
12:00 +1°C° 0 mm 2 mps 756 mmHg 99%
13:00 +1°C° 0 mm 2 mps 756 mmHg 99%
14:00 +1°C° 0 mm 2 mps 757 mmHg 99%
15:00 +1°C° 0 mm 2 mps 757 mmHg 99%
16:00 +1°C° 0 mm 2 mps 757 mmHg 99%
17:00 +1°C° 0 mm 2 mps 757 mmHg 98%
18:00 +1°C° 0 mm 2 mps 757 mmHg 98%
19:00 +1°C° 0 mm 2 mps 758 mmHg 98%
20:00 +1°C° 0 mm 2 mps 758 mmHg 98%
21:00 +1°C° 0 mm 2 mps 758 mmHg 98%
22:00 0°C° 0.1 mm 3 mps 758 mmHg 98%
23:00 0°C° 0.1 mm 3 mps 758 mmHg 98%

25 January, Monday

Time Temperature Precipitation Wind Pressure Humidity
00:00 0°C° 0.1 mm 3 mps 758 mmHg 98%
01:00 0°C° 0.1 mm 3 mps 758 mmHg 98%
02:00 0°C° 0.1 mm 3 mps 758 mmHg 97%
03:00 0°C° 0.1 mm 3 mps 758 mmHg 97%
04:00 0°C° 0.3 mm 3 mps 758 mmHg 97%
05:00 0°C° 0.3 mm 3 mps 758 mmHg 97%
06:00 0°C° 0.3 mm 3 mps 759 mmHg 97%
07:00 0°C° 0.3 mm 3 mps 759 mmHg 96%
08:00 -1°C° 0.3 mm 4 mps 759 mmHg 95%
09:00 -1°C° 0.3 mm 4 mps 759 mmHg 94%
10:00 -1°C° 0 mm 4 mps 759 mmHg 93%
11:00 -1°C° 0 mm 4 mps 759 mmHg 91%
12:00 -2°C° 0 mm 4 mps 760 mmHg 90%
13:00 -2°C° 0 mm 4 mps 760 mmHg 90%
14:00 -1°C° 0 mm 3 mps 760 mmHg 90%
15:00 -2°C° 0 mm 3 mps 760 mmHg 90%
16:00 -2°C° 0 mm 3 mps 760 mmHg 90%
17:00 -4°C° 0 mm 3 mps 760 mmHg 91%
18:00 -4°C° 0 mm 3 mps 760 mmHg 92%
19:00 -4°C° 0 mm 3 mps 760 mmHg 92%
20:00 -4°C° 0 mm 3 mps 760 mmHg 92%
21:00 -5°C° 0 mm 3 mps 760 mmHg 93%
22:00 -5°C° 0 mm 3 mps 759 mmHg 93%
23:00 -4°C° 0 mm 3 mps 759 mmHg 93%

26 January, Tuesday

Time Temperature Precipitation Wind Pressure Humidity
00:00 -4°C° 0 mm 3 mps 759 mmHg 93%
01:00 -4°C° 0 mm 3 mps 759 mmHg 93%
02:00 -4°C° 0 mm 3 mps 759 mmHg 93%
03:00 -5°C° 0 mm 3 mps 759 mmHg 93%
04:00 -4°C° 0 mm 3 mps 759 mmHg 93%
05:00 -4°C° 0 mm 3 mps 759 mmHg 93%
06:00 -4°C° 0 mm 3 mps 759 mmHg 94%
07:00 -4°C° 0 mm 3 mps 759 mmHg 94%
08:00 -4°C° 0 mm 3 mps 759 mmHg 94%
09:00 -2°C° 0 mm 3 mps 759 mmHg 94%
10:00 -2°C° 0 mm 3 mps 759 mmHg 93%
11:00 -2°C° 0 mm 3 mps 759 mmHg 93%
12:00 -3°C° 0 mm 4 mps 759 mmHg 92%
13:00 -3°C° 0 mm 4 mps 759 mmHg 92%
14:00 -2°C° 0 mm 3 mps 759 mmHg 91%
15:00 -2°C° 0 mm 3 mps 758 mmHg 91%
16:00 -2°C° 0 mm 3 mps 758 mmHg 91%
17:00 -4°C° 0 mm 3 mps 758 mmHg 92%
18:00 -4°C° 0 mm 3 mps 758 mmHg 92%
19:00 -4°C° 0 mm 3 mps 758 mmHg 92%
20:00 -5°C° 0 mm 4 mps 757 mmHg 92%
21:00 -5°C° 0 mm 4 mps 757 mmHg 92%
22:00 -5°C° 0 mm 4 mps 757 mmHg 92%
23:00 -7°C° 0 mm 4 mps 757 mmHg 92%

27 January, Wednesday

Time Temperature Precipitation Wind Pressure Humidity
00:00 -7°C° 0 mm 4 mps 756 mmHg 92%
01:00 -6°C° 0 mm 5 mps 756 mmHg 92%
02:00 -6°C° 0 mm 5 mps 755 mmHg 92%
03:00 -6°C° 0 mm 5 mps 755 mmHg 92%
04:00 -5°C° 0.5 mm 5 mps 755 mmHg 92%
05:00 -4°C° 0.5 mm 5 mps 755 mmHg 92%
06:00 -3°C° 0.5 mm 4 mps 754 mmHg 92%
07:00 -4°C° 0 mm 5 mps 754 mmHg 92%
08:00 -2°C° 0 mm 5 mps 754 mmHg 92%
09:00 -2°C° 0 mm 5 mps 754 mmHg 91%
10:00 -2°C° 0 mm 5 mps 754 mmHg 91%
11:00 -1°C° 0 mm 5 mps 754 mmHg 90%
12:00 -1°C° 0 mm 5 mps 754 mmHg 90%
13:00 -1°C° 0 mm 5 mps 754 mmHg 89%
14:00 -1°C° 0 mm 5 mps 754 mmHg 89%
15:00 -1°C° 0 mm 5 mps 754 mmHg 88%
16:00 -1°C° 0 mm 5 mps 754 mmHg 89%
17:00 -1°C° 0 mm 5 mps 754 mmHg 90%
18:00 -1°C° 0 mm 4 mps 754 mmHg 91%
19:00 -1°C° 0 mm 5 mps 754 mmHg 91%
20:00 -1°C° 0 mm 5 mps 754 mmHg 91%
21:00 -1°C° 0 mm 5 mps 754 mmHg 91%
22:00 -1°C° 0 mm 5 mps 754 mmHg 91%
23:00 -1°C° 0 mm 5 mps 754 mmHg 91%
Show more